UAL44 KSFO-LSZH

Flight info

Callsign UAL44
Flight time N/A
Altitude 35000
Route SNTNA2 ORRCA DCT FMG DCT DBS DCT BIL DCT UDBOX/N0483F370 DCT 54N090W 57N080W 59N070W DCT RODBO/N0483F390 DCT MIBNO/M083F390 DCT MAXAR DCT 62N050W 62N040W 61N030W 58N020W/N0484F390 DCT SOVED DCT RINUS/N0483F410 DCT LIPGO DCT NUCHU DCT BOGNA UL612 VEULE DCT TEPRI DCT MANAG DCT PEVIT DCT BLM
Aircraft B772/H-SDE2E3FGHIJ5LORVWXY/LB1D1

Departure

Time 2026-05-07 20:29
Airport San Francisco International Airport (KSFO)

Arrival

Time N/A
Airport Zürich Airport (LSZH)
Time Latitude Longitude Altitude Speed Heading
2026-05-07 20:08 37.61768 -122.39255 26 ft 0 kts 27°
2026-05-07 20:11 37.61756 -122.39263 25 ft 2 kts 27°
2026-05-07 20:11 37.61741 -122.39273 24 ft 2 kts 28°
2026-05-07 20:12 37.61726 -122.39281 25 ft 2 kts 10°
2026-05-07 20:12 37.61709 -122.39283 25 ft 2 kts 353°
2026-05-07 20:12 37.61693 -122.39277 26 ft 2 kts 315°
2026-05-07 20:12 37.61684 -122.39260 26 ft 2 kts 299°
2026-05-07 20:13 37.61677 -122.39242 24 ft 2 kts 297°
2026-05-07 20:13 37.61675 -122.39238 24 ft 0 kts 297°
2026-05-07 20:16 37.61676 -122.39239 24 ft 1 kts 297°
2026-05-07 20:16 37.61681 -122.39253 25 ft 3 kts 297°
2026-05-07 20:16 37.61692 -122.39279 25 ft 4 kts 298°
2026-05-07 20:17 37.61708 -122.39318 26 ft 6 kts 298°
2026-05-07 20:17 37.61729 -122.39366 26 ft 7 kts 298°
2026-05-07 20:17 37.61753 -122.39424 26 ft 8 kts 298°
2026-05-07 20:17 37.61781 -122.39487 26 ft 8 kts 307°
2026-05-07 20:18 37.61834 -122.39517 26 ft 9 kts 342°
2026-05-07 20:18 37.61895 -122.39538 26 ft 9 kts 353°
2026-05-07 20:18 37.61952 -122.39513 26 ft 9 kts 39°
2026-05-07 20:18 37.61981 -122.39444 26 ft 9 kts 72°
2026-05-07 20:19 37.61989 -122.39411 26 ft 0 kts 72°
2026-05-07 20:19 37.61990 -122.39408 26 ft 0 kts 72°
2026-05-07 20:19 37.61990 -122.39407 26 ft 1 kts 72°
2026-05-07 20:19 37.62001 -122.39362 26 ft 8 kts 73°
2026-05-07 20:20 37.62019 -122.39288 26 ft 9 kts 73°
2026-05-07 20:20 37.62047 -122.39228 26 ft 8 kts 36°
2026-05-07 20:20 37.62100 -122.39192 26 ft 9 kts 27°
2026-05-07 20:20 37.62161 -122.39152 26 ft 10 kts 28°
2026-05-07 20:21 37.62220 -122.39108 26 ft 9 kts 43°
2026-05-07 20:21 37.62244 -122.39032 26 ft 10 kts 72°
2026-05-07 20:21 37.62265 -122.38947 26 ft 10 kts 80°
2026-05-07 20:21 37.62243 -122.38864 26 ft 11 kts 117°
2026-05-07 20:22 37.62206 -122.38776 26 ft 12 kts 117°
2026-05-07 20:22 37.62164 -122.38676 26 ft 14 kts 118°
2026-05-07 20:22 37.62118 -122.38566 26 ft 15 kts 117°
2026-05-07 20:22 37.62067 -122.38445 26 ft 16 kts 118°
2026-05-07 20:23 37.62013 -122.38314 26 ft 18 kts 118°
2026-05-07 20:23 37.61954 -122.38173 26 ft 19 kts 117°
2026-05-07 20:23 37.61891 -122.38023 26 ft 20 kts 118°
2026-05-07 20:23 37.61830 -122.37869 26 ft 19 kts 112°
2026-05-07 20:24 37.61782 -122.37715 26 ft 19 kts 111°
2026-05-07 20:24 37.61734 -122.37560 26 ft 19 kts 111°
2026-05-07 20:24 37.61674 -122.37403 26 ft 20 kts 118°
2026-05-07 20:24 37.61607 -122.37244 26 ft 21 kts 118°
2026-05-07 20:25 37.61541 -122.37085 26 ft 21 kts 117°
2026-05-07 20:25 37.61471 -122.36931 26 ft 20 kts 128°
2026-05-07 20:25 37.61379 -122.36802 26 ft 19 kts 129°
2026-05-07 20:25 37.61316 -122.36661 26 ft 18 kts 117°
2026-05-07 20:26 37.61255 -122.36518 26 ft 18 kts 118°
2026-05-07 20:26 37.61195 -122.36375 26 ft 18 kts 118°
2026-05-07 20:26 37.61135 -122.36233 26 ft 18 kts 118°
2026-05-07 20:26 37.61078 -122.36098 26 ft 15 kts 118°
2026-05-07 20:27 37.61050 -122.36002 26 ft 11 kts 92°
2026-05-07 20:27 37.61082 -122.35919 26 ft 9 kts 41°
2026-05-07 20:27 37.61126 -122.35887 25 ft 7 kts 28°
2026-05-07 20:27 37.61163 -122.35862 26 ft 5 kts 27°
2026-05-07 20:28 37.61190 -122.35875 26 ft 4 kts 308°
2026-05-07 20:28 37.61208 -122.35923 26 ft 15 kts 296°
2026-05-07 20:28 37.61332 -122.36220 26 ft 70 kts 298°
2026-05-07 20:28 37.61661 -122.37005 26 ft 131 kts 297°
2026-05-07 20:29 37.62175 -122.38200 129 ft 170 kts 299°
2026-05-07 20:29 37.62732 -122.39518 783 ft 171 kts 298°
2026-05-07 20:29 37.63291 -122.40866 1470 ft 174 kts 297°
2026-05-07 20:29 37.63868 -122.42217 2174 ft 175 kts 298°
2026-05-07 20:30 37.64458 -122.43592 2651 ft 183 kts 299°
2026-05-07 20:30 37.65078 -122.45029 3126 ft 188 kts 299°
2026-05-07 20:30 37.65716 -122.46500 3581 ft 198 kts 298°
2026-05-07 20:30 37.66410 -122.48105 3756 ft 218 kts 298°
2026-05-07 20:31 37.67271 -122.49783 3889 ft 237 kts 316°
2026-05-07 20:31 37.68797 -122.50697 4090 ft 256 kts 354°
2026-05-07 20:31 37.70579 -122.50284 4468 ft 267 kts 21°
2026-05-07 20:31 37.72298 -122.49319 4942 ft 274 kts 22°
2026-05-07 20:32 37.74065 -122.48349 5461 ft 280 kts 21°
2026-05-07 20:32 37.75873 -122.47394 5979 ft 284 kts 20°
2026-05-07 20:32 37.77726 -122.46446 6518 ft 288 kts 20°
2026-05-07 20:32 37.79596 -122.45508 7053 ft 290 kts 20°
2026-05-07 20:33 37.81480 -122.44570 7627 ft 291 kts 20°
2026-05-07 20:33 37.83353 -122.43596 8083 ft 292 kts 26°
2026-05-07 20:33 37.84925 -122.41996 8354 ft 298 kts 47°
2026-05-07 20:33 37.86301 -122.39992 8801 ft 301 kts 49°
2026-05-07 20:34 37.87666 -122.37986 9357 ft 301 kts 49°
2026-05-07 20:34 37.89040 -122.35969 9814 ft 304 kts 49°
2026-05-07 20:34 37.90432 -122.33935 10222 ft 309 kts 49°
2026-05-07 20:34 37.91877 -122.31830 10333 ft 324 kts 49°
2026-05-07 20:35 37.93390 -122.29632 10439 ft 338 kts 48°
2026-05-07 20:35 37.94977 -122.27332 10584 ft 353 kts 48°
2026-05-07 20:35 37.96632 -122.24939 10729 ft 369 kts 48°
2026-05-07 20:35 37.98340 -122.22466 11172 ft 375 kts 48°
2026-05-07 20:36 38.00066 -122.19971 11786 ft 377 kts 48°
2026-05-07 20:36 38.01805 -122.17448 12401 ft 380 kts 48°
2026-05-07 20:36 38.03541 -122.14932 13097 ft 379 kts 48°
2026-05-07 20:36 38.05292 -122.12397 13645 ft 384 kts 48°
2026-05-07 20:37 38.07059 -122.09837 14224 ft 386 kts 48°
2026-05-07 20:37 38.08815 -122.07291 14969 ft 382 kts 48°
2026-05-07 20:37 38.10565 -122.04749 15524 ft 385 kts 48°
2026-05-07 20:37 38.12323 -122.02195 15865 ft 393 kts 48°
2026-05-07 20:38 38.14128 -121.99570 16317 ft 396 kts 48°
2026-05-07 20:38 38.15953 -121.96913 16778 ft 400 kts 48°
2026-05-07 20:38 38.17797 -121.94225 17190 ft 404 kts 48°
2026-05-07 20:38 38.19642 -121.91532 17747 ft 405 kts 48°
2026-05-07 20:39 38.21497 -121.88824 18182 ft 408 kts 48°
2026-05-07 20:39 38.23365 -121.86098 18593 ft 411 kts 48°
2026-05-07 20:39 38.25249 -121.83342 18966 ft 413 kts 48°
2026-05-07 20:39 38.27143 -121.80568 19294 ft 418 kts 48°
2026-05-07 20:40 38.29062 -121.77758 19631 ft 422 kts 48°
2026-05-07 20:40 38.30993 -121.74928 20029 ft 424 kts 48°
2026-05-07 20:40 38.32930 -121.72088 20448 ft 425 kts 49°
2026-05-07 20:40 38.34871 -121.69235 20860 ft 427 kts 49°
2026-05-07 20:41 38.36799 -121.66401 21219 ft 430 kts 49°
2026-05-07 20:41 38.38760 -121.63515 21577 ft 432 kts 49°
2026-05-07 20:41 38.40736 -121.60606 21954 ft 434 kts 49°
2026-05-07 20:41 38.42720 -121.57682 22328 ft 437 kts 49°
2026-05-07 20:42 38.44702 -121.54719 22663 ft 440 kts 51°
2026-05-07 20:42 38.46583 -121.51624 23016 ft 442 kts 53°
2026-05-07 20:42 38.48436 -121.48480 23382 ft 444 kts 53°
2026-05-07 20:42 38.50289 -121.45304 23738 ft 447 kts 53°
2026-05-07 20:43 38.52149 -121.42108 24042 ft 449 kts 53°
2026-05-07 20:43 38.54013 -121.38910 24325 ft 451 kts 53°
2026-05-07 20:43 38.55895 -121.35688 24603 ft 454 kts 53°
2026-05-07 20:43 38.57788 -121.32451 24923 ft 455 kts 53°
2026-05-07 20:44 38.59683 -121.29213 25298 ft 455 kts 53°
2026-05-07 20:44 38.61558 -121.26009 25586 ft 458 kts 53°
2026-05-07 20:44 38.63479 -121.22724 25865 ft 460 kts 53°
2026-05-07 20:44 38.65401 -121.19435 26169 ft 462 kts 53°
2026-05-07 20:45 38.67330 -121.16130 26490 ft 464 kts 52°
2026-05-07 20:45 38.69268 -121.12807 26815 ft 465 kts 52°
2026-05-07 20:45 38.71208 -121.09476 27139 ft 467 kts 52°
2026-05-07 20:45 38.73151 -121.06135 27495 ft 469 kts 52°
2026-05-07 20:46 38.75101 -121.02780 27840 ft 470 kts 52°
2026-05-07 20:46 38.77061 -120.99405 28182 ft 472 kts 52°
2026-05-07 20:46 38.78999 -120.96064 28486 ft 474 kts 52°
2026-05-07 20:46 38.80974 -120.92654 28785 ft 476 kts 52°
2026-05-07 20:47 38.82950 -120.89241 29116 ft 478 kts 52°
2026-05-07 20:47 38.84933 -120.85810 29433 ft 479 kts 52°
2026-05-07 20:47 38.86918 -120.82372 29734 ft 481 kts 52°
2026-05-07 20:47 38.88914 -120.78913 30031 ft 482 kts 52°
2026-05-07 20:48 38.90916 -120.75437 30293 ft 483 kts 52°
2026-05-07 20:48 38.92918 -120.71958 30530 ft 485 kts 52°
2026-05-07 20:48 38.94926 -120.68466 30688 ft 487 kts 52°
2026-05-07 20:48 38.96919 -120.64998 30847 ft 489 kts 52°
2026-05-07 20:49 38.98945 -120.61468 31044 ft 491 kts 52°
2026-05-07 20:49 39.00969 -120.57935 31413 ft 489 kts 52°
2026-05-07 20:49 39.02976 -120.54428 31718 ft 488 kts 52°
2026-05-07 20:49 39.04988 -120.50911 32036 ft 486 kts 52°
2026-05-07 20:50 39.06316 -120.48586 32207 ft 486 kts 52°
2026-05-07 20:50 39.08320 -120.45074 32463 ft 486 kts 52°
2026-05-07 20:50 39.10322 -120.41565 32735 ft 486 kts 52°
2026-05-07 20:50 39.12321 -120.38050 33033 ft 485 kts 52°
2026-05-07 20:51 39.14313 -120.34546 33335 ft 484 kts 52°
2026-05-07 20:51 39.16299 -120.31053 33637 ft 484 kts 52°
2026-05-07 20:51 39.18288 -120.27555 33930 ft 483 kts 52°
2026-05-07 20:51 39.20268 -120.24066 34236 ft 482 kts 52°
2026-05-07 20:52 39.22245 -120.20575 34495 ft 481 kts 52°
2026-05-07 20:52 39.24222 -120.17083 34728 ft 481 kts 52°
2026-05-07 20:52 39.26192 -120.13597 34939 ft 481 kts 52°
2026-05-07 20:52 39.28165 -120.10101 35172 ft 481 kts 52°
2026-05-07 20:53 39.30113 -120.06645 35214 ft 484 kts 52°
2026-05-07 20:53 39.34088 -119.99587 35239 ft 485 kts 52°
2026-05-07 20:54 39.38028 -119.92575 35196 ft 479 kts 52°
2026-05-07 20:54 39.41909 -119.85652 35139 ft 477 kts 52°
2026-05-07 20:55 39.45791 -119.78708 35147 ft 476 kts 52°
2026-05-07 20:55 39.49670 -119.71762 35158 ft 476 kts 52°
2026-05-07 20:56 39.53584 -119.64843 35139 ft 476 kts 49°
2026-05-07 20:56 39.57948 -119.58403 35115 ft 475 kts 46°
2026-05-07 20:57 39.62400 -119.52035 35071 ft 476 kts 46°
2026-05-07 20:57 39.66841 -119.45631 35032 ft 477 kts 46°
2026-05-07 20:58 39.71258 -119.39199 34993 ft 478 kts 46°
2026-05-07 20:58 39.75650 -119.32775 34991 ft 478 kts 46°
2026-05-07 20:59 39.80066 -119.26300 34992 ft 479 kts 46°
2026-05-07 20:59 39.84486 -119.19805 34992 ft 479 kts 46°
2026-05-07 21:00 39.88898 -119.13312 34991 ft 479 kts 46°
2026-05-07 21:00 39.93314 -119.06800 34989 ft 479 kts 46°
2026-05-07 21:01 39.97720 -119.00289 34996 ft 479 kts 46°
2026-05-07 21:01 40.02124 -118.93766 35019 ft 478 kts 46°
2026-05-07 21:02 40.06520 -118.87241 35038 ft 478 kts 46°
2026-05-07 21:02 40.10877 -118.80759 35054 ft 478 kts 46°
2026-05-07 21:03 40.15264 -118.74222 35065 ft 478 kts 46°
2026-05-07 21:03 40.19646 -118.67676 35063 ft 478 kts 46°
2026-05-07 21:04 40.24021 -118.61128 35058 ft 478 kts 46°
2026-05-07 21:04 40.28391 -118.54572 35043 ft 478 kts 46°
2026-05-07 21:05 40.32756 -118.48009 35029 ft 477 kts 46°
2026-05-07 21:05 40.37025 -118.41578 35007 ft 477 kts 46°
2026-05-07 21:06 40.41388 -118.34991 34995 ft 477 kts 46°
2026-05-07 21:06 40.45725 -118.28430 35002 ft 477 kts 46°
2026-05-07 21:07 40.50091 -118.21809 35001 ft 477 kts 46°
2026-05-07 21:07 40.54426 -118.15223 34999 ft 478 kts 46°
2026-05-07 21:08 40.58774 -118.08603 35000 ft 477 kts 46°
2026-05-07 21:08 40.63094 -118.02009 35001 ft 477 kts 46°
2026-05-07 21:09 40.67441 -117.95359 35044 ft 477 kts 46°
2026-05-07 21:09 40.71743 -117.88766 35059 ft 477 kts 46°
2026-05-07 21:10 40.76081 -117.82105 35089 ft 476 kts 46°
2026-05-07 21:10 40.80375 -117.75494 35092 ft 477 kts 46°
2026-05-07 21:11 40.84685 -117.68842 35100 ft 477 kts 46°
2026-05-07 21:11 40.91164 -117.58822 35061 ft 477 kts 46°
2026-05-07 21:12 40.95466 -117.52149 35045 ft 476 kts 46°
2026-05-07 21:12 40.99760 -117.45470 35015 ft 477 kts 46°
2026-05-07 21:13 41.04058 -117.38772 34984 ft 477 kts 46°
2026-05-07 21:13 41.08323 -117.32113 34979 ft 477 kts 46°
2026-05-07 21:14 41.12616 -117.25396 34984 ft 477 kts 46°
2026-05-07 21:14 41.16901 -117.18675 34987 ft 476 kts 46°
2026-05-07 21:15 41.21078 -117.12109 34989 ft 477 kts 46°
2026-05-07 21:15 41.25320 -117.05426 34990 ft 477 kts 46°
2026-05-07 21:16 41.29596 -116.98674 34996 ft 478 kts 46°
2026-05-07 21:16 41.33866 -116.91918 34993 ft 479 kts 46°
2026-05-07 21:17 41.38166 -116.85099 35001 ft 479 kts 46°
2026-05-07 21:17 41.42410 -116.78352 34998 ft 479 kts 46°
2026-05-07 21:18 41.46709 -116.71504 35003 ft 479 kts 46°
2026-05-07 21:18 41.50963 -116.64711 34998 ft 479 kts 45°
2026-05-07 21:19 41.55240 -116.57866 34989 ft 479 kts 45°
2026-05-07 21:19 41.59515 -116.51009 34993 ft 479 kts 45°
2026-05-07 21:20 41.63774 -116.44162 34992 ft 479 kts 45°
2026-05-07 21:20 41.68000 -116.37353 34997 ft 479 kts 45°
2026-05-07 21:21 41.72273 -116.30452 34994 ft 480 kts 45°
2026-05-07 21:21 41.76525 -116.23571 35000 ft 480 kts 45°
2026-05-07 21:22 41.80787 -116.16655 35008 ft 480 kts 45°
2026-05-07 21:22 41.85018 -116.09776 35006 ft 481 kts 45°
2026-05-07 21:23 41.89290 -116.02814 35009 ft 481 kts 45°
2026-05-07 21:23 41.93544 -115.95864 35015 ft 481 kts 45°
2026-05-07 21:24 41.97760 -115.88959 35010 ft 482 kts 45°
2026-05-07 21:24 42.02034 -115.81945 35011 ft 482 kts 45°
2026-05-07 21:25 42.06266 -115.74983 35005 ft 482 kts 45°
2026-05-07 21:25 42.10484 -115.68028 34993 ft 482 kts 45°
2026-05-07 21:26 42.14737 -115.60998 34988 ft 482 kts 45°
2026-05-07 21:26 42.18946 -115.54025 34984 ft 482 kts 45°
2026-05-07 21:27 42.23202 -115.46957 34981 ft 481 kts 45°
2026-05-07 21:27 42.27407 -115.39959 34967 ft 481 kts 44°
2026-05-07 21:28 42.31600 -115.32964 34971 ft 482 kts 44°
2026-05-07 21:28 42.35815 -115.25917 34962 ft 482 kts 44°
2026-05-07 21:29 42.40040 -115.18833 34965 ft 482 kts 44°
2026-05-07 21:29 42.44236 -115.11784 34957 ft 483 kts 44°
2026-05-07 21:30 42.48446 -115.04692 34952 ft 483 kts 44°
2026-05-07 21:30 42.52657 -114.97583 34947 ft 483 kts 44°
2026-05-07 21:31 42.56836 -114.90510 34964 ft 484 kts 44°
2026-05-07 21:31 42.61068 -114.83333 34975 ft 484 kts 44°
2026-05-07 21:32 42.65251 -114.76220 35002 ft 485 kts 44°
2026-05-07 21:32 42.69466 -114.69034 35038 ft 485 kts 44°
2026-05-07 21:33 42.73671 -114.61849 35055 ft 485 kts 44°
2026-05-07 21:33 42.77868 -114.54659 35070 ft 485 kts 44°
2026-05-07 21:34 42.82034 -114.47506 35074 ft 485 kts 44°
2026-05-07 21:34 42.86223 -114.40296 35039 ft 484 kts 44°
2026-05-07 21:35 42.90232 -114.33380 35018 ft 484 kts 44°
2026-05-07 21:35 42.94400 -114.26170 34987 ft 484 kts 44°
2026-05-07 21:36 42.98584 -114.18918 34947 ft 484 kts 44°
2026-05-07 21:36 43.02735 -114.11705 34914 ft 484 kts 44°
2026-05-07 21:37 43.06905 -114.04439 34908 ft 485 kts 44°
2026-05-07 21:37 43.11046 -113.97207 34894 ft 485 kts 44°
2026-05-07 21:38 43.14525 -113.91117 34888 ft 485 kts 44°
2026-05-07 21:38 43.18657 -113.83869 34885 ft 485 kts 44°
2026-05-07 21:39 43.23492 -113.75364 34873 ft 485 kts 44°
2026-05-07 21:39 43.26954 -113.69259 34867 ft 485 kts 44°
2026-05-07 21:40 43.31067 -113.61989 34866 ft 485 kts 44°
2026-05-07 21:40 43.35210 -113.54649 34861 ft 485 kts 44°
2026-05-07 21:41 43.39353 -113.47288 34851 ft 485 kts 44°
2026-05-07 21:41 43.43449 -113.39995 34853 ft 485 kts 44°
2026-05-07 21:42 43.47574 -113.32633 34846 ft 485 kts 44°
2026-05-07 21:42 43.51671 -113.25299 34842 ft 485 kts 44°
2026-05-07 21:43 43.55782 -113.17923 34839 ft 485 kts 44°
2026-05-07 21:43 43.59919 -113.10480 34846 ft 485 kts 44°
2026-05-07 21:44 43.63976 -113.03166 34851 ft 484 kts 44°
2026-05-07 21:44 43.68064 -112.95776 34853 ft 484 kts 44°
2026-05-07 21:45 43.72142 -112.88384 34843 ft 483 kts 44°
2026-05-07 21:45 43.76213 -112.80985 34858 ft 482 kts 44°